START_TIME,STEP,MOV.,M6,t_acc.,M7,t_acc.,M19,t_acc.,H36,t_acc.
1979-07-21 18:00:26.780 ,0,1,0.,12.0,0.,12.0,0.,12.0,0.,12.0
1979-07-21 18:00:38.780 ,0,1,0.,12.0,0.,12.0,0.,12.0,0.,12.0
1979-07-21 18:00:50.780 ,3,1,0.,12.0,0.,12.0,0.,12.0,0.,12.0
1979-07-21 18:01:02.780 ,3,1,0.,12.0,0.,12.0,0.,12.0,0.,12.0
1979-07-21 18:01:14.780 ,7,1,0.,12.0,0.,12.0,0.,12.0,0.,12.0
1979-07-21 18:01:26.780 ,7,1,0.,12.0,0.,12.0,0.,12.0,0.,12.0
1979-07-21 18:01:38.780 ,4,1,0.,12.0,0.,12.0,0.,12.0,0.,12.0
1979-07-21 18:01:50.780 ,4,1,0.,12.0,0.,12.0,0.,12.0,0.,12.0
1979-07-21 18:02:02.780 ,0,1,0.,12.0,0.,12.0,0.,12.0,0.,12.0
1979-07-21 18:02:14.780 ,0,1,0.,12.0,0.,12.0,0.,12.0,0.,12.0
1979-07-21 18:02:26.780 ,3,1,0.,12.0,0.,12.0,0.,12.0,0.,12.0
1979-07-21 18:02:38.780 ,3,1,0.,12.0,0.,12.0,0.,12.0,0.,12.0
1979-07-21 18:02:50.780 ,7,1,0.,12.0,0.,12.0,0.,12.0,0.,12.0
1979-07-21 18:03:02.780 ,7,1,0.,12.0,0.,12.0,0.,12.0,0.,12.0
1979-07-21 18:03:14.780 ,4,1,0.,12.0,0.,12.0,0.,12.0,0.,12.0
1979-07-21 18:03:26.780 ,4,1,0.,12.0,0.,12.0,0.,12.0,0.,12.0
1979-07-21 18:03:38.780 ,0,1,0.,12.0,0.,12.0,0.,12.0,0.,12.0
1979-07-21 18:03:50.780 ,0,1,0.,12.0,0.,12.0,0.,12.0,0.,12.0
1979-07-21 18:04:02.780 ,3,1,0.,12.0,0.,12.0,0.,12.0,0.,12.0
1979-07-21 18:04:14.780 ,3,1,0.,12.0,0.,12.0,0.,12.0,0.,12.0
1979-07-21 18:04:26.780 ,7,1,0.,12.0,0.,12.0,0.,12.0,0.,12.0
1979-07-21 18:04:38.780 ,7,1,0.,12.0,0.,12.0,0.,12.0,0.,12.0
1979-07-21 18:04:50.780 ,4,1,0.,12.0,0.,12.0,0.,12.0,0.,12.0
1979-07-21 18:05:02.780 ,4,1,0.,12.0,0.,12.0,0.,12.0,0.,12.0
1979-07-21 18:05:14.780 ,0,0,0.,12.0,0.,12.0,0.,12.0,0.,12.0
1979-07-21 18:05:26.780 ,0,0,0.,12.0,0.,12.0,0.,12.0,0.,12.0
1979-07-21 18:05:40.580 ,0,0,0.,12.0,0.,12.0,0.,12.0,0.,12.0
1979-07-21 18:05:52.580 ,0,0,1.,12.0,0.,12.0,0.,12.0,0.,12.0
1979-07-21 18:06:02.780 ,0,0,0.,12.0,0.,12.0,0.,12.0,0.,12.0
1979-07-21 18:06:14.780 ,0,0,0.,12.0,0.,12.0,0.,12.0,0.,12.0
1979-07-21 18:06:26.780 ,5,1,0.,12.0,0.,12.0,0.,12.0,0.,12.0
1979-07-21 18:06:38.780 ,5,1,0.,12.0,0.,12.0,0.,12.0,0.,12.0
1979-07-21 18:06:50.780 ,5,0,0.,12.0,0.,12.0,0.,12.0,0.,12.0
1979-07-21 18:07:02.780 ,5,0,0.,12.0,0.,12.0,0.,12.0,0.,12.0
1979-07-21 18:07:14.780 ,4,1,0.,12.0,0.,12.0,0.,12.0,0.,12.0
1979-07-21 18:07:26.780 ,4,1,0.,12.0,0.,12.0,0.,12.0,0.,12.0
1979-07-21 18:07:38.780 ,4,0,0.,12.0,0.,12.0,0.,12.0,0.,12.0
1979-07-21 18:07:50.780 ,4,0,0.,12.0,0.,12.0,0.,12.0,0.,12.0
1979-07-21 18:08:02.780 ,3,1,0.,12.0,0.,12.0,0.,12.0,0.,12.0
1979-07-21 18:08:14.780 ,3,1,0.,12.0,0.,12.0,0.,12.0,0.,12.0
1979-07-21 18:08:26.780 ,3,0,0.,12.0,0.,12.0,0.,12.0,0.,12.0
1979-07-21 18:08:38.780 ,3,0,0.,12.0,0.,12.0,0.,12.0,0.,12.0
1979-07-21 18:08:50.780 ,2,1,0.,12.0,0.,12.0,0.,12.0,0.,12.0
1979-07-21 18:09:02.780 ,2,1,0.,12.0,0.,12.0,0.,12.0,0.,12.0
1979-07-21 18:09:14.780 ,2,0,0.,12.0,0.,12.0,0.,12.0,0.,12.0
1979-07-21 18:09:26.780 ,2,0,0.,12.0,0.,12.0,0.,12.0,0.,12.0
1979-07-21 18:09:38.780 ,1,1,0.,12.0,0.,12.0,0.,12.0,0.,12.0
1979-07-21 18:09:50.780 ,1,1,0.,12.0,0.,12.0,0.,12.0,0.,12.0
1979-07-21 18:10:02.780 ,1,0,0.,12.0,0.,12.0,0.,12.0,0.,12.0
1979-07-21 18:10:14.780 ,1,0,0.,12.0,0.,12.0,0.,12.0,0.,12.0
1979-07-21 18:10:26.780 ,0,1,0.,12.0,0.,12.0,0.,12.0,0.,12.0
1979-07-21 18:10:38.780 ,0,1,0.,12.0,0.,12.0,0.,12.0,0.,12.0
1979-07-21 18:10:50.780 ,0,0,0.,12.0,0.,12.0,0.,12.0,0.,12.0
1979-07-21 18:11:02.780 ,0,0,0.,12.0,0.,12.0,0.,12.0,0.,12.0
1979-07-21 18:11:14.780 ,0,1,0.,12.0,0.,12.0,0.,12.0,0.,12.0
1979-07-21 18:11:26.780 ,0,1,0.,12.0,0.,12.0,0.,12.0,0.,12.0
1979-07-21 18:11:38.780 ,0,0,0.,12.0,0.,12.0,0.,12.0,0.,12.0
1979-07-21 18:11:50.780 ,0,0,0.,12.0,0.,12.0,0.,12.0,0.,12.0
1979-07-21 18:12:02.780 ,1,1,0.,12.0,0.,12.0,0.,12.0,0.,12.0
1979-07-21 18:12:14.780 ,1,1,0.,12.0,0.,12.0,0.,12.0,0.,12.0
1979-07-21 18:12:26.780 ,1,0,0.,12.0,0.,12.0,0.,12.0,0.,12.0
1979-07-21 18:12:38.780 ,1,0,0.,12.0,0.,12.0,0.,12.0,0.,12.0
1979-07-21 18:12:50.780 ,2,1,0.,12.0,0.,12.0,0.,12.0,0.,12.0
1979-07-21 18:13:02.780 ,2,1,0.,12.0,0.,12.0,0.,12.0,0.,12.0
1979-07-21 18:13:14.780 ,2,0,0.,12.0,0.,12.0,0.,12.0,0.,12.0
1979-07-21 18:13:26.780 ,2,0,0.,12.0,0.,12.0,0.,12.0,0.,12.0
1979-07-21 18:13:38.780 ,3,1,0.,12.0,0.,12.0,0.,12.0,0.,12.0
1979-07-21 18:13:50.780 ,3,1,0.,12.0,0.,12.0,0.,12.0,0.,12.0
1979-07-21 18:14:02.780 ,3,0,0.,12.0,0.,12.0,0.,12.0,0.,12.0
1979-07-21 18:14:14.780 ,3,0,0.,12.0,0.,12.0,0.,12.0,0.,12.0
1979-07-21 18:14:26.780 ,4,1,0.,12.0,0.,12.0,0.,12.0,0.,12.0
1979-07-21 18:14:38.780 ,4,1,0.,12.0,0.,12.0,0.,12.0,0.,12.0
1979-07-21 18:14:50.780 ,4,0,0.,12.0,0.,12.0,0.,12.0,0.,12.0
1979-07-21 18:15:02.780 ,4,0,0.,12.0,0.,12.0,0.,12.0,0.,12.0
1979-07-21 18:15:14.780 ,5,1,0.,12.0,0.,12.0,0.,12.0,0.,12.0
1979-07-21 18:15:26.780 ,5,1,0.,12.0,0.,12.0,0.,12.0,0.,12.0
1979-07-21 18:15:38.780 ,5,0,0.,12.0,0.,12.0,0.,12.0,0.,12.0
1979-07-21 18:15:50.780 ,5,0,0.,12.0,0.,12.0,0.,12.0,0.,12.0
1979-07-21 18:16:02.780 ,6,1,0.,12.0,0.,12.0,0.,12.0,0.,12.0
1979-07-21 18:16:14.780 ,6,1,0.,12.0,0.,12.0,0.,12.0,0.,12.0
1979-07-21 18:16:26.780 ,6,0,0.,12.0,0.,12.0,0.,12.0,0.,12.0
1979-07-21 18:16:38.780 ,6,0,0.,12.0,0.,12.0,0.,12.0,0.,12.0
1979-07-21 18:16:50.780 ,7,1,0.,12.0,0.,12.0,0.,12.0,0.,12.0
1979-07-21 18:17:02.780 ,7,1,0.,12.0,0.,12.0,0.,12.0,0.,12.0
1979-07-21 18:17:14.780 ,7,0,0.,12.0,0.,12.0,0.,12.0,0.,12.0
1979-07-21 18:17:26.780 ,7,0,0.,12.0,0.,12.0,0.,12.0,0.,12.0
1979-07-21 18:17:38.780 ,7,1,0.,12.0,0.,12.0,0.,12.0,0.,12.0
1979-07-21 18:17:50.780 ,7,1,0.,12.0,0.,12.0,0.,12.0,0.,12.0
1979-07-21 18:18:02.780 ,7,0,0.,12.0,0.,12.0,0.,12.0,0.,12.0
1979-07-21 18:18:14.780 ,7,0,0.,12.0,0.,12.0,0.,12.0,0.,12.0
1979-07-21 18:18:26.780 ,6,1,0.,12.0,0.,12.0,0.,12.0,0.,12.0
1979-07-21 18:18:38.780 ,6,1,0.,12.0,0.,12.0,0.,12.0,0.,12.0
1979-07-21 18:18:50.780 ,6,0,0.,12.0,0.,12.0,0.,12.0,0.,12.0
1979-07-21 18:19:02.780 ,6,0,0.,12.0,0.,12.0,0.,12.0,0.,12.0
1979-07-21 18:19:14.780 ,5,1,0.,12.0,0.,12.0,0.,12.0,0.,12.0
1979-07-21 18:19:26.780 ,5,1,0.,12.0,0.,12.0,0.,12.0,0.,12.0
1979-07-21 18:19:38.780 ,5,0,0.,12.0,0.,12.0,0.,12.0,0.,12.0
1979-07-21 18:19:50.780 ,5,0,0.,12.0,0.,12.0,0.,12.0,0.,12.0
1979-07-21 18:20:02.780 ,4,1,0.,12.0,0.,12.0,0.,12.0,0.,12.0
1979-07-21 18:20:14.780 ,4,1,0.,12.0,0.,12.0,0.,12.0,0.,12.0
1979-07-21 18:20:26.780 ,4,0,0.,12.0,0.,12.0,0.,12.0,0.,12.0
1979-07-21 18:20:38.780 ,4,0,0.,12.0,0.,12.0,0.,12.0,0.,12.0
1979-07-21 18:20:50.780 ,3,1,0.,12.0,0.,12.0,0.,12.0,0.,12.0
1979-07-21 18:21:02.780 ,3,1,0.,12.0,0.,12.0,0.,12.0,0.,12.0
1979-07-21 18:21:14.780 ,3,0,0.,12.0,0.,12.0,0.,12.0,0.,12.0
1979-07-21 18:21:26.780 ,3,0,0.,12.0,0.,12.0,0.,12.0,0.,12.0
1979-07-21 18:21:38.780 ,2,1,0.,12.0,0.,12.0,0.,12.0,0.,12.0
1979-07-21 18:21:50.780 ,2,1,0.,12.0,0.,12.0,0.,12.0,0.,12.0
1979-07-21 18:22:02.780 ,2,0,0.,12.0,0.,12.0,0.,12.0,0.,12.0
1979-07-21 18:22:14.780 ,2,0,0.,12.0,0.,12.0,0.,12.0,0.,12.0
1979-07-21 18:22:26.780 ,1,1,0.,12.0,0.,12.0,0.,12.0,0.,12.0
1979-07-21 18:22:38.780 ,1,1,0.,12.0,0.,12.0,0.,12.0,0.,12.0
1979-07-21 18:22:50.780 ,1,0,0.,12.0,0.,12.0,0.,12.0,0.,12.0
1979-07-21 18:23:02.780 ,1,0,0.,12.0,0.,12.0,0.,12.0,0.,12.0
1979-07-21 18:23:14.780 ,0,1,0.,12.0,0.,12.0,0.,12.0,0.,12.0
1979-07-21 18:23:26.780 ,0,1,0.,12.0,0.,12.0,0.,12.0,0.,12.0
1979-07-21 18:23:38.780 ,0,0,0.,12.0,0.,12.0,0.,12.0,0.,12.0
1979-07-21 18:23:50.780 ,0,0,0.,12.0,0.,12.0,0.,12.0,0.,12.0
1979-07-21 18:24:02.780 ,0,1,0.,12.0,0.,12.0,0.,12.0,0.,12.0
1979-07-21 18:24:14.780 ,0,1,0.,12.0,0.,12.0,0.,12.0,0.,12.0
1979-07-21 18:24:26.780 ,0,0,0.,12.0,0.,12.0,0.,12.0,0.,12.0
1979-07-21 18:24:38.780 ,0,0,0.,12.0,0.,12.0,0.,12.0,0.,12.0
1979-07-21 18:24:50.780 ,1,1,0.,12.0,0.,12.0,0.,12.0,0.,12.0
1979-07-21 18:25:02.780 ,1,1,0.,12.0,0.,12.0,0.,12.0,0.,12.0
1979-07-21 18:25:14.780 ,1,0,0.,12.0,0.,12.0,0.,12.0,0.,12.0
1979-07-21 18:25:26.780 ,1,0,0.,12.0,0.,12.0,0.,12.0,0.,12.0
1979-07-21 18:25:38.780 ,2,1,0.,12.0,0.,12.0,0.,12.0,0.,12.0
1979-07-21 18:25:50.780 ,2,1,0.,12.0,0.,12.0,0.,12.0,0.,12.0
1979-07-21 18:26:02.780 ,2,0,0.,12.0,0.,12.0,0.,12.0,0.,12.0
1979-07-21 18:26:14.780 ,2,0,0.,12.0,0.,12.0,0.,12.0,0.,12.0
1979-07-21 18:26:26.780 ,3,1,0.,12.0,0.,12.0,0.,12.0,0.,12.0
1979-07-21 18:26:38.780 ,3,1,0.,12.0,0.,12.0,0.,12.0,0.,12.0
1979-07-21 18:26:50.780 ,3,0,0.,12.0,0.,12.0,0.,12.0,0.,12.0
1979-07-21 18:27:02.780 ,3,0,0.,12.0,0.,12.0,0.,12.0,0.,12.0
1979-07-21 18:27:14.780 ,4,1,0.,12.0,0.,12.0,0.,12.0,0.,12.0
1979-07-21 18:27:26.780 ,4,1,0.,12.0,0.,12.0,0.,12.0,0.,12.0
1979-07-21 18:27:38.780 ,4,0,0.,12.0,0.,12.0,0.,12.0,0.,12.0
1979-07-21 18:27:50.780 ,4,0,0.,12.0,0.,12.0,0.,12.0,0.,12.0
1979-07-21 18:28:02.780 ,5,1,0.,12.0,0.,12.0,0.,12.0,0.,12.0
1979-07-21 18:28:14.780 ,5,1,0.,12.0,0.,12.0,0.,12.0,0.,12.0
1979-07-21 18:28:26.780 ,5,0,0.,12.0,0.,12.0,0.,12.0,0.,12.0
1979-07-21 18:28:38.780 ,5,0,0.,12.0,0.,12.0,0.,12.0,0.,12.0
1979-07-21 18:28:50.780 ,6,1,0.,12.0,0.,12.0,0.,12.0,0.,12.0
1979-07-21 18:29:02.780 ,6,1,0.,12.0,0.,12.0,0.,12.0,0.,12.0
1979-07-21 18:29:14.780 ,6,0,0.,12.0,0.,12.0,0.,12.0,0.,12.0
1979-07-21 18:29:26.780 ,6,0,0.,12.0,0.,12.0,0.,12.0,0.,12.0
1979-07-21 18:29:38.780 ,7,1,0.,12.0,0.,12.0,0.,12.0,0.,12.0
1979-07-21 18:29:50.780 ,7,1,0.,12.0,0.,12.0,0.,12.0,0.,12.0
1979-07-21 18:30:02.780 ,7,0,0.,12.0,0.,12.0,0.,12.0,0.,12.0
1979-07-21 18:30:14.780 ,7,0,0.,12.0,0.,12.0,0.,12.0,0.,12.0
1979-07-21 18:30:26.780 ,7,1,0.,12.0,0.,12.0,0.,12.0,0.,12.0
1979-07-21 18:30:38.780 ,7,1,0.,12.0,0.,12.0,0.,12.0,0.,12.0
1979-07-21 18:30:50.780 ,7,0,0.,12.0,0.,12.0,0.,12.0,0.,12.0
1979-07-21 18:31:02.780 ,7,0,0.,12.0,0.,12.0,0.,12.0,0.,12.0
1979-07-21 18:31:14.780 ,6,1,0.,12.0,0.,12.0,0.,12.0,0.,12.0
1979-07-21 18:31:26.780 ,6,1,0.,12.0,0.,12.0,0.,12.0,0.,12.0
1979-07-21 18:31:38.780 ,6,0,0.,12.0,0.,12.0,0.,12.0,0.,12.0
1979-07-21 18:31:50.780 ,6,0,0.,12.0,0.,12.0,0.,12.0,0.,12.0
1979-07-21 18:32:02.780 ,5,1,0.,12.0,0.,12.0,0.,12.0,0.,12.0
1979-07-21 18:32:14.780 ,5,1,0.,12.0,0.,12.0,0.,12.0,0.,12.0
1979-07-21 18:32:26.780 ,5,0,0.,12.0,0.,12.0,0.,12.0,0.,12.0
1979-07-21 18:32:38.780 ,5,0,0.,12.0,0.,12.0,0.,12.0,0.,12.0
1979-07-21 18:32:50.780 ,4,1,0.,12.0,0.,12.0,0.,12.0,0.,12.0
1979-07-21 18:33:02.780 ,4,1,0.,12.0,0.,12.0,0.,12.0,0.,12.0
1979-07-21 18:33:14.780 ,4,0,0.,12.0,0.,12.0,0.,12.0,0.,12.0
1979-07-21 18:33:26.780 ,4,0,0.,12.0,0.,12.0,0.,12.0,0.,12.0
1979-07-21 18:33:38.780 ,3,1,0.,12.0,0.,12.0,0.,12.0,0.,12.0
1979-07-21 18:33:50.780 ,3,1,1.,12.0,0.,12.0,0.,12.0,0.,12.0
1979-07-21 18:34:02.780 ,3,0,0.,12.0,0.,12.0,0.,12.0,0.,12.0
1979-07-21 18:34:14.780 ,3,0,0.,12.0,0.,12.0,0.,12.0,0.,12.0
1979-07-21 18:34:26.780 ,2,1,0.,12.0,0.,12.0,0.,12.0,0.,12.0
1979-07-21 18:34:38.780 ,2,1,0.,12.0,0.,12.0,0.,12.0,0.,12.0
1979-07-21 18:34:50.780 ,2,0,0.,12.0,0.,12.0,0.,12.0,0.,12.0
1979-07-21 18:35:02.780 ,2,0,0.,12.0,0.,12.0,0.,12.0,0.,12.0
1979-07-21 18:35:14.780 ,1,1,0.,12.0,0.,12.0,0.,12.0,0.,12.0
1979-07-21 18:35:26.780 ,1,1,0.,12.0,0.,12.0,0.,12.0,0.,12.0
1979-07-21 18:35:38.780 ,1,0,0.,12.0,0.,12.0,0.,12.0,0.,12.0
1979-07-21 18:35:50.780 ,1,0,0.,12.0,0.,12.0,0.,12.0,0.,12.0
1979-07-21 18:36:02.780 ,0,1,0.,12.0,0.,12.0,0.,12.0,0.,12.0
1979-07-21 18:36:14.780 ,0,1,0.,12.0,0.,12.0,0.,12.0,0.,12.0
1979-07-21 18:36:26.780 ,0,0,0.,12.0,0.,12.0,0.,12.0,0.,12.0
1979-07-21 18:36:38.780 ,0,0,0.,12.0,0.,12.0,0.,12.0,0.,12.0
1979-07-21 18:36:50.780 ,0,1,0.,12.0,0.,12.0,0.,12.0,0.,12.0
1979-07-21 18:37:02.780 ,0,1,0.,12.0,0.,12.0,0.,12.0,0.,12.0
1979-07-21 18:37:14.780 ,0,0,0.,12.0,0.,12.0,0.,12.0,0.,12.0
1979-07-21 18:37:26.780 ,0,0,0.,12.0,0.,12.0,0.,12.0,0.,12.0
1979-07-21 18:37:38.780 ,1,1,0.,12.0,0.,12.0,0.,12.0,0.,12.0
1979-07-21 18:37:50.780 ,1,1,0.,12.0,0.,12.0,0.,12.0,0.,12.0
1979-07-21 18:38:02.780 ,1,0,0.,12.0,0.,12.0,0.,12.0,0.,12.0
1979-07-21 18:38:14.780 ,1,0,0.,12.0,0.,12.0,0.,12.0,0.,12.0
1979-07-21 18:38:26.780 ,2,1,0.,12.0,0.,12.0,0.,12.0,0.,12.0
1979-07-21 18:38:38.780 ,2,1,0.,12.0,0.,12.0,0.,12.0,0.,12.0
1979-07-21 18:38:50.780 ,2,0,0.,12.0,0.,12.0,0.,12.0,0.,12.0
1979-07-21 18:39:02.780 ,2,0,0.,12.0,0.,12.0,0.,12.0,0.,12.0
1979-07-21 18:39:14.780 ,3,1,0.,12.0,0.,12.0,0.,12.0,0.,12.0
1979-07-21 18:39:26.780 ,3,1,0.,12.0,0.,12.0,0.,12.0,0.,12.0
1979-07-21 18:39:38.780 ,3,0,0.,12.0,0.,12.0,0.,12.0,0.,12.0
1979-07-21 18:39:50.780 ,3,0,0.,12.0,0.,12.0,0.,12.0,0.,12.0
1979-07-21 18:40:02.780 ,4,1,1.,12.0,0.,12.0,0.,12.0,0.,12.0
1979-07-21 18:40:14.780 ,4,1,0.,12.0,0.,12.0,0.,12.0,0.,12.0
1979-07-21 18:40:26.780 ,4,0,0.,12.0,0.,12.0,0.,12.0,0.,12.0
1979-07-21 18:40:38.780 ,4,0,0.,12.0,0.,12.0,0.,12.0,0.,12.0
1979-07-21 18:40:50.780 ,5,1,0.,12.0,0.,12.0,0.,12.0,0.,12.0
1979-07-21 18:41:02.780 ,5,1,0.,12.0,0.,12.0,0.,12.0,0.,12.0
1979-07-21 18:41:14.780 ,5,0,0.,12.0,0.,12.0,0.,12.0,0.,12.0
1979-07-21 18:41:26.780 ,5,0,0.,12.0,0.,12.0,0.,12.0,0.,12.0
1979-07-21 18:41:38.780 ,6,1,0.,12.0,0.,12.0,0.,12.0,0.,12.0
1979-07-21 18:41:50.780 ,6,1,0.,12.0,0.,12.0,0.,12.0,0.,12.0
1979-07-21 18:42:02.780 ,6,0,0.,12.0,0.,12.0,0.,12.0,0.,12.0
1979-07-21 18:42:14.780 ,6,0,0.,12.0,0.,12.0,0.,12.0,0.,12.0
1979-07-21 18:42:26.780 ,7,0,0.,12.0,0.,12.0,0.,12.0,0.,12.0
1979-07-21 18:42:38.780 ,7,0,0.,12.0,0.,12.0,0.,12.0,0.,12.0
1979-07-21 18:42:50.780 ,7,0,0.,12.0,0.,12.0,0.,12.0,0.,12.0
1979-07-21 18:43:02.780 ,7,0,0.,12.0,0.,12.0,0.,12.0,0.,12.0
1979-07-21 18:43:14.780 ,4,1,0.,12.0,0.,12.0,0.,12.0,0.,12.0
1979-07-21 18:43:26.780 ,4,1,0.,12.0,0.,12.0,0.,12.0,0.,12.0
1979-07-21 18:43:38.780 ,0,1,0.,12.0,0.,12.0,0.,12.0,0.,12.0
1979-07-21 18:43:50.780 ,0,1,0.,12.0,0.,12.0,0.,12.0,0.,12.0
1979-07-21 18:44:02.780 ,3,1,0.,12.0,0.,12.0,0.,12.0,0.,12.0
1979-07-21 18:44:14.780 ,3,1,0.,12.0,0.,12.0,0.,12.0,0.,12.0
1979-07-21 18:44:26.780 ,7,1,0.,12.0,0.,12.0,0.,12.0,0.,12.0
1979-07-21 18:44:38.780 ,7,1,0.,12.0,0.,12.0,0.,12.0,0.,12.0
1979-07-21 18:44:50.780 ,4,1,0.,12.0,0.,12.0,0.,12.0,0.,12.0
1979-07-21 18:45:02.780 ,4,1,0.,12.0,0.,12.0,0.,12.0,0.,12.0
1979-07-21 18:45:14.780 ,0,1,0.,12.0,0.,12.0,0.,12.0,0.,12.0
1979-07-21 18:45:26.780 ,0,1,0.,12.0,0.,12.0,0.,12.0,0.,12.0
1979-07-21 18:45:38.780 ,3,1,0.,12.0,0.,12.0,0.,12.0,0.,12.0
1979-07-21 18:45:50.780 ,3,1,0.,12.0,0.,12.0,0.,12.0,0.,12.0
1979-07-21 18:46:02.780 ,7,1,0.,12.0,0.,12.0,0.,12.0,0.,12.0
1979-07-21 18:46:14.780 ,7,1,0.,12.0,0.,12.0,0.,12.0,0.,12.0
1979-07-21 18:46:26.780 ,4,1,0.,12.0,0.,12.0,0.,12.0,0.,12.0
1979-07-21 18:46:38.780 ,4,1,0.,12.0,0.,12.0,0.,12.0,0.,12.0
1979-07-21 18:46:50.780 ,0,1,0.,12.0,0.,12.0,0.,12.0,0.,12.0
1979-07-21 18:47:02.780 ,0,1,0.,12.0,0.,12.0,0.,12.0,0.,12.0
1979-07-21 18:47:14.780 ,3,1,0.,12.0,0.,12.0,0.,12.0,0.,12.0
1979-07-21 18:47:26.780 ,3,1,0.,12.0,0.,12.0,0.,12.0,0.,12.0
1979-07-21 18:47:38.780 ,7,1,0.,12.0,0.,12.0,0.,12.0,0.,12.0
1979-07-21 18:47:50.780 ,7,1,0.,12.0,0.,12.0,0.,12.0,0.,12.0
1979-07-21 18:48:02.780 ,4,1,0.,12.0,0.,12.0,0.,12.0,0.,12.0
1979-07-21 18:48:14.780 ,4,1,0.,12.0,0.,12.0,0.,12.0,0.,12.0
1979-07-21 18:48:26.780 ,0,1,0.,12.0,0.,12.0,0.,12.0,0.,12.0
1979-07-21 18:48:38.780 ,0,1,0.,12.0,0.,12.0,0.,12.0,0.,12.0
1979-07-21 18:48:50.780 ,3,1,0.,12.0,0.,12.0,0.,12.0,0.,12.0
1979-07-21 18:49:02.780 ,3,1,0.,12.0,0.,12.0,0.,12.0,0.,12.0
1979-07-21 18:49:14.780 ,7,1,0.,12.0,0.,12.0,0.,12.0,0.,12.0
1979-07-21 18:49:26.780 ,7,1,0.,12.0,0.,12.0,0.,12.0,0.,12.0
1979-07-21 18:49:38.780 ,4,1,0.,12.0,0.,12.0,0.,12.0,0.,12.0
1979-07-21 18:49:50.780 ,4,1,0.,12.0,0.,12.0,0.,12.0,0.,12.0
1979-07-21 18:50:02.780 ,0,1,0.,12.0,0.,12.0,0.,12.0,0.,12.0
1979-07-21 18:50:14.780 ,0,1,0.,12.0,0.,12.0,0.,12.0,0.,12.0
1979-07-21 18:50:26.780 ,3,1,0.,12.0,0.,12.0,0.,12.0,0.,12.0
1979-07-21 18:50:38.780 ,3,1,0.,12.0,0.,12.0,0.,12.0,0.,12.0
1979-07-21 18:50:50.780 ,7,1,0.,12.0,0.,12.0,0.,12.0,0.,12.0
1979-07-21 18:51:02.780 ,7,1,0.,12.0,0.,12.0,0.,12.0,0.,12.0
1979-07-21 18:51:14.780 ,4,1,0.,12.0,0.,12.0,0.,12.0,0.,12.0
1979-07-21 18:51:26.780 ,4,1,0.,12.0,0.,12.0,0.,12.0,0.,12.0
1979-07-21 18:51:38.780 ,0,1,0.,12.0,0.,12.0,0.,12.0,0.,12.0
1979-07-21 18:51:50.780 ,0,1,0.,12.0,0.,12.0,0.,12.0,0.,12.0
1979-07-21 18:52:02.780 ,3,1,0.,12.0,0.,12.0,0.,12.0,0.,12.0
1979-07-21 18:52:14.780 ,3,1,0.,12.0,0.,12.0,0.,12.0,0.,12.0
1979-07-21 18:52:26.780 ,7,1,0.,12.0,0.,12.0,0.,12.0,0.,12.0
1979-07-21 18:52:38.780 ,7,1,0.,12.0,0.,12.0,0.,12.0,0.,12.0
1979-07-21 18:52:50.780 ,4,1,0.,12.0,0.,12.0,0.,12.0,0.,12.0
1979-07-21 18:53:02.780 ,4,1,0.,12.0,0.,12.0,0.,12.0,0.,12.0
1979-07-21 18:53:14.780 ,0,1,0.,12.0,0.,12.0,0.,12.0,0.,12.0
1979-07-21 18:53:26.780 ,0,1,0.,12.0,0.,12.0,0.,12.0,0.,12.0
1979-07-21 18:53:38.780 ,0,0,0.,12.0,0.,12.0,0.,12.0,0.,12.0
1979-07-21 18:53:50.780 ,0,0,0.,12.0,0.,12.0,0.,12.0,0.,12.0
1979-07-21 18:54:02.780 ,0,0,0.,12.0,0.,12.0,0.,12.0,0.,12.0
1979-07-21 18:54:14.780 ,0,0,0.,12.0,0.,12.0,0.,12.0,0.,12.0
1979-07-21 18:54:26.780 ,5,1,0.,12.0,0.,12.0,0.,12.0,0.,12.0
1979-07-21 18:54:38.780 ,5,1,0.,12.0,0.,12.0,0.,12.0,0.,12.0
1979-07-21 18:54:50.780 ,5,0,0.,12.0,0.,12.0,0.,12.0,0.,12.0
1979-07-21 18:55:02.780 ,5,0,0.,12.0,0.,12.0,0.,12.0,0.,12.0
1979-07-21 18:55:14.780 ,4,1,0.,12.0,0.,12.0,0.,12.0,0.,12.0
1979-07-21 18:55:26.780 ,4,1,0.,12.0,0.,12.0,0.,12.0,0.,12.0
1979-07-21 18:55:38.780 ,4,0,0.,12.0,0.,12.0,0.,12.0,0.,12.0
1979-07-21 18:55:50.780 ,4,0,0.,12.0,0.,12.0,0.,12.0,0.,12.0
1979-07-21 18:56:02.780 ,3,1,0.,12.0,0.,12.0,0.,12.0,0.,12.0
1979-07-21 18:56:14.780 ,3,1,0.,12.0,0.,12.0,0.,12.0,0.,12.0
1979-07-21 18:56:26.780 ,3,0,0.,12.0,0.,12.0,0.,12.0,0.,12.0
1979-07-21 18:56:38.780 ,3,0,0.,12.0,0.,12.0,0.,12.0,0.,12.0
1979-07-21 18:56:50.780 ,2,1,0.,12.0,0.,12.0,0.,12.0,0.,12.0
1979-07-21 18:57:02.780 ,2,1,0.,12.0,0.,12.0,0.,12.0,0.,12.0
1979-07-21 18:57:14.780 ,2,0,0.,12.0,0.,12.0,0.,12.0,0.,12.0
1979-07-21 18:57:26.780 ,2,0,0.,12.0,0.,12.0,0.,12.0,0.,12.0
1979-07-21 18:57:38.780 ,1,1,0.,12.0,0.,12.0,0.,12.0,0.,12.0
1979-07-21 18:57:50.780 ,1,1,0.,12.0,0.,12.0,0.,12.0,0.,12.0
1979-07-21 18:58:02.780 ,1,0,0.,12.0,0.,12.0,0.,12.0,0.,12.0
1979-07-21 18:58:14.780 ,1,0,0.,12.0,0.,12.0,0.,12.0,0.,12.0
1979-07-21 18:58:26.780 ,0,1,0.,12.0,0.,12.0,0.,12.0,0.,12.0
1979-07-21 18:58:38.780 ,0,1,0.,12.0,0.,12.0,0.,12.0,0.,12.0
1979-07-21 18:58:50.780 ,0,0,0.,12.0,0.,12.0,0.,12.0,0.,12.0
1979-07-21 18:59:02.780 ,0,0,0.,12.0,0.,12.0,0.,12.0,0.,12.0
1979-07-21 18:59:14.780 ,0,1,0.,12.0,0.,12.0,0.,12.0,0.,12.0
1979-07-21 18:59:26.780 ,0,1,0.,12.0,0.,12.0,0.,12.0,0.,12.0
1979-07-21 18:59:38.780 ,0,0,0.,12.0,0.,12.0,0.,12.0,0.,12.0
1979-07-21 18:59:50.780 ,0,0,0.,12.0,0.,12.0,0.,12.0,0.,12.0
1979-07-21 19:00:02.780 ,1,1,0.,12.0,0.,12.0,0.,12.0,0.,12.0
1979-07-21 19:00:14.780 ,1,1,0.,12.0,0.,12.0,0.,12.0,0.,12.0
1979-07-21 19:00:26.780 ,1,0,0.,12.0,0.,12.0,0.,12.0,0.,12.0
1979-07-21 19:00:38.780 ,1,0,0.,12.0,0.,12.0,0.,12.0,0.,12.0
1979-07-21 19:00:50.780 ,2,1,0.,12.0,0.,12.0,0.,12.0,0.,12.0
1979-07-21 19:01:02.780 ,2,1,0.,12.0,0.,12.0,0.,12.0,0.,12.0
1979-07-21 19:01:14.780 ,2,0,0.,12.0,0.,12.0,0.,12.0,0.,12.0
1979-07-21 19:01:26.780 ,2,0,0.,12.0,0.,12.0,0.,12.0,0.,12.0
1979-07-21 19:01:38.780 ,3,1,0.,12.0,0.,12.0,0.,12.0,0.,12.0
1979-07-21 19:01:50.780 ,3,1,0.,12.0,0.,12.0,0.,12.0,0.,12.0
1979-07-21 19:02:02.780 ,3,0,0.,12.0,0.,12.0,0.,12.0,0.,12.0
1979-07-21 19:02:14.780 ,3,0,0.,12.0,0.,12.0,0.,12.0,0.,12.0
1979-07-21 19:02:26.780 ,4,1,0.,12.0,0.,12.0,0.,12.0,0.,12.0
1979-07-21 19:02:38.780 ,4,1,0.,12.0,0.,12.0,0.,12.0,0.,12.0
1979-07-21 19:02:50.780 ,4,0,0.,12.0,0.,12.0,0.,12.0,0.,12.0
1979-07-21 19:03:02.780 ,4,0,0.,12.0,0.,12.0,0.,12.0,0.,12.0
1979-07-21 19:03:14.780 ,5,1,0.,12.0,0.,12.0,0.,12.0,0.,12.0
1979-07-21 19:03:26.780 ,5,1,0.,12.0,0.,12.0,0.,12.0,0.,12.0
1979-07-21 19:03:38.780 ,5,0,0.,12.0,0.,12.0,0.,12.0,0.,12.0
1979-07-21 19:03:50.780 ,5,0,0.,12.0,0.,12.0,0.,12.0,0.,12.0
1979-07-21 19:04:02.780 ,6,1,0.,12.0,0.,12.0,0.,12.0,0.,12.0
1979-07-21 19:04:14.780 ,6,1,0.,12.0,0.,12.0,0.,12.0,0.,12.0
1979-07-21 19:04:26.780 ,6,0,0.,12.0,0.,12.0,0.,12.0,0.,12.0
1979-07-21 19:04:38.780 ,6,0,0.,12.0,0.,12.0,0.,12.0,0.,12.0
1979-07-21 19:04:50.780 ,7,1,0.,12.0,0.,12.0,0.,12.0,0.,12.0
1979-07-21 19:05:02.780 ,7,1,0.,12.0,0.,12.0,0.,12.0,0.,12.0
1979-07-21 19:05:14.780 ,7,0,0.,12.0,0.,12.0,0.,12.0,0.,12.0
1979-07-21 19:05:26.780 ,7,0,0.,12.0,0.,12.0,0.,12.0,0.,12.0
1979-07-21 19:05:38.780 ,7,1,0.,12.0,0.,12.0,0.,12.0,0.,12.0
1979-07-21 19:05:50.780 ,7,1,0.,12.0,0.,12.0,0.,12.0,0.,12.0
1979-07-21 19:06:02.780 ,7,0,0.,12.0,0.,12.0,0.,12.0,0.,12.0
1979-07-21 19:06:14.780 ,7,0,0.,12.0,0.,12.0,0.,12.0,0.,12.0
1979-07-21 19:06:26.780 ,6,1,0.,12.0,0.,12.0,0.,12.0,0.,12.0
1979-07-21 19:06:38.780 ,6,1,0.,12.0,0.,12.0,0.,12.0,0.,12.0
1979-07-21 19:06:50.780 ,6,0,0.,12.0,0.,12.0,0.,12.0,0.,12.0
1979-07-21 19:07:02.780 ,6,0,0.,12.0,0.,12.0,0.,12.0,0.,12.0
1979-07-21 19:07:14.780 ,5,1,0.,12.0,0.,12.0,0.,12.0,0.,12.0
1979-07-21 19:07:26.780 ,5,1,0.,12.0,0.,12.0,0.,12.0,0.,12.0
1979-07-21 19:07:38.780 ,5,0,0.,12.0,0.,12.0,0.,12.0,0.,12.0
1979-07-21 19:07:50.780 ,5,0,0.,12.0,0.,12.0,0.,12.0,0.,12.0
1979-07-21 19:08:02.780 ,4,1,0.,12.0,0.,12.0,0.,12.0,0.,12.0
1979-07-21 19:08:14.780 ,4,1,0.,12.0,0.,12.0,0.,12.0,0.,12.0
1979-07-21 19:08:26.780 ,4,0,0.,12.0,0.,12.0,0.,12.0,0.,12.0
1979-07-21 19:08:38.780 ,4,0,0.,12.0,0.,12.0,0.,12.0,0.,12.0
1979-07-21 19:08:50.780 ,3,1,0.,12.0,0.,12.0,0.,12.0,0.,12.0
1979-07-21 19:09:02.780 ,3,1,0.,12.0,0.,12.0,0.,12.0,0.,12.0
1979-07-21 19:09:14.780 ,3,0,0.,12.0,0.,12.0,0.,12.0,0.,12.0
1979-07-21 19:09:26.780 ,3,0,0.,12.0,0.,12.0,0.,12.0,0.,12.0
1979-07-21 19:09:38.780 ,2,1,0.,12.0,0.,12.0,0.,12.0,0.,12.0
1979-07-21 19:09:50.780 ,2,1,0.,12.0,0.,12.0,0.,12.0,0.,12.0
1979-07-21 19:10:02.780 ,2,0,0.,12.0,0.,12.0,0.,12.0,0.,12.0
1979-07-21 19:10:14.780 ,2,0,0.,12.0,0.,12.0,0.,12.0,0.,12.0
1979-07-21 19:10:26.780 ,1,1,0.,12.0,0.,12.0,0.,12.0,0.,12.0
1979-07-21 19:10:38.780 ,1,1,0.,12.0,0.,12.0,0.,12.0,0.,12.0
1979-07-21 19:10:50.780 ,1,0,0.,12.0,0.,12.0,0.,12.0,0.,12.0
1979-07-21 19:11:02.780 ,1,0,0.,12.0,0.,12.0,0.,12.0,0.,12.0
1979-07-21 19:11:14.780 ,0,1,0.,12.0,0.,12.0,0.,12.0,0.,12.0
1979-07-21 19:11:26.780 ,0,1,0.,12.0,0.,12.0,0.,12.0,0.,12.0
1979-07-21 19:11:38.780 ,0,0,0.,12.0,0.,12.0,0.,12.0,0.,12.0
1979-07-21 19:11:50.780 ,0,0,0.,12.0,0.,12.0,0.,12.0,0.,12.0
1979-07-21 19:12:02.780 ,0,1,0.,12.0,0.,12.0,0.,12.0,0.,12.0
1979-07-21 19:12:14.780 ,0,1,0.,12.0,0.,12.0,0.,12.0,0.,12.0
1979-07-21 19:12:26.780 ,0,0,0.,12.0,0.,12.0,0.,12.0,0.,12.0
1979-07-21 19:12:38.780 ,0,0,0.,12.0,0.,12.0,0.,12.0,0.,12.0
1979-07-21 19:12:50.780 ,1,1,0.,12.0,0.,12.0,0.,12.0,0.,12.0
1979-07-21 19:13:02.780 ,1,1,0.,12.0,0.,12.0,0.,12.0,0.,12.0
1979-07-21 19:13:14.780 ,1,0,0.,12.0,0.,12.0,0.,12.0,0.,12.0
1979-07-21 19:13:26.780 ,1,0,0.,12.0,0.,12.0,0.,12.0,0.,12.0
1979-07-21 19:13:38.780 ,2,1,0.,12.0,0.,12.0,0.,12.0,0.,12.0
1979-07-21 19:13:50.780 ,2,1,0.,12.0,0.,12.0,0.,12.0,0.,12.0
1979-07-21 19:14:02.780 ,2,0,0.,12.0,0.,12.0,0.,12.0,0.,12.0
1979-07-21 19:14:14.780 ,2,0,0.,12.0,0.,12.0,0.,12.0,0.,12.0
1979-07-21 19:14:26.780 ,3,1,0.,12.0,0.,12.0,0.,12.0,0.,12.0
1979-07-21 19:14:38.780 ,3,1,0.,12.0,0.,12.0,0.,12.0,0.,12.0
1979-07-21 19:14:50.780 ,3,0,0.,12.0,0.,12.0,0.,12.0,0.,12.0
1979-07-21 19:15:02.780 ,3,0,0.,12.0,0.,12.0,0.,12.0,0.,12.0
1979-07-21 19:15:14.780 ,4,1,0.,12.0,0.,12.0,0.,12.0,0.,12.0
1979-07-21 19:15:26.780 ,4,1,0.,12.0,0.,12.0,0.,12.0,0.,12.0
1979-07-21 19:15:38.780 ,4,0,0.,12.0,0.,12.0,0.,12.0,0.,12.0
1979-07-21 19:15:50.780 ,4,0,0.,12.0,0.,12.0,0.,12.0,0.,12.0
1979-07-21 19:16:02.780 ,5,1,0.,12.0,0.,12.0,0.,12.0,0.,12.0
1979-07-21 19:16:14.780 ,5,1,0.,12.0,0.,12.0,0.,12.0,0.,12.0
1979-07-21 19:16:26.780 ,5,0,0.,12.0,0.,12.0,0.,12.0,0.,12.0
1979-07-21 19:16:38.780 ,5,0,0.,12.0,0.,12.0,0.,12.0,0.,12.0
1979-07-21 19:16:50.780 ,6,1,0.,12.0,0.,12.0,0.,12.0,0.,12.0
1979-07-21 19:17:02.780 ,6,1,0.,12.0,0.,12.0,0.,12.0,0.,12.0
1979-07-21 19:17:14.780 ,6,0,0.,12.0,0.,12.0,0.,12.0,0.,12.0
1979-07-21 19:17:26.780 ,6,0,1.,12.0,0.,12.0,0.,12.0,0.,12.0